Thomson Majesty — 9HA2188 — position and weather

sailwx.info

Track history (hours):
 
Tides and Currents Weather Stations Pressure Air Temp Water Temp Dewpoint Dewpoint Depression Visibility Wind Speed Wind Dir Waves Ship Positions

Thomson Majesty

Last reported at 2015-Sep-03 04:33 UTC. Time now 2015-Sep-03 10:49 UTC.
Position N 41°19' E 019°18'.

Length 207 m; draft 6.2 m.

Type: Ship. MMSI: 248124000.

Date/timePositionNaut miles runAvg speedWind from/ knotsBaromVisibWave heightAir tempDewpointWater temp
2015-Sep-03 04:33N 41°19' E 019°18'1513.2
2015-Sep-03 03:26N 41°30' E 019°05'1112.4
2015-Sep-03 02:33N 41°39' E 018°57'1212.3
2015-Sep-03 01:32N 41°50' E 018°48'1212.2
2015-Sep-03 00:33N 41°60' E 018°39'1212.3
2015-Sep-02 23:33N 42°10' E 018°29'1212.4
2015-Sep-02 22:33N 42°20' E 018°20'1212.3
2015-Sep-02 21:33N 42°30' E 018°10'11 0.9
2015-Sep-02 09:14N 42°39' E 018°02'913.3
2015-Sep-02 08:33N 42°39' E 017°49'1414.2
2015-Sep-02 07:33N 42°41' E 017°30'  
2015-Aug-29 14:20N 42°08' E 016°47'1316.8
2015-Aug-29 13:33N 41°59' E 016°59'2913.5
2015-Aug-29 11:24N 41°38' E 017°27'  
2015-Aug-25 18:07N 37°21' E 023°48'611.6
2015-Aug-25 17:33N 37°28' E 023°46'1211.9
2015-Aug-25 16:33N 37°39' E 023°43'1212.1
2015-Aug-25 15:33N 37°50' E 023°36'6 6.0
2015-Aug-25 14:32N 37°56' E 023°38'0 0.0
2015-Aug-25 13:33N 37°56' E 023°38'0 0.0
2015-Aug-25 12:33N 37°56' E 023°38'0 0.0
2015-Aug-25 11:32N 37°56' E 023°38'0 0.0
2015-Aug-25 10:33N 37°56' E 023°38'0 0.0
2015-Aug-25 09:33N 37°56' E 023°38'0 0.0
2015-Aug-25 08:32N 37°56' E 023°38'0 0.0
2015-Aug-25 07:33N 37°56' E 023°38'0 0.0
2015-Aug-25 06:32N 37°56' E 023°38'0 0.0
2015-Aug-25 05:32N 37°56' E 023°38'0 0.0
2015-Aug-25 04:32N 37°56' E 023°38'0 0.1
2015-Aug-25 03:33N 37°56' E 023°38'6 6.0
2015-Aug-25 02:33N 37°51' E 023°40'1413.8
2015-Aug-25 01:33N 37°39' E 023°49'1514.9
2015-Aug-25 00:33N 37°32' E 024°06'3015.1
2015-Aug-24 22:33N 37°32' E 024°44'1515.1
2015-Aug-24 21:33N 37°31' E 025°03'1515.1
2015-Aug-24 20:34N 37°32' E 025°22'1514.5
2015-Aug-24 19:33N 37°36' E 025°40'  
Track history (hours):
 
Tides and Currents Weather Stations Pressure Air Temp Water Temp Dewpoint Dewpoint Depression Visibility Wind Speed Wind Dir Waves Ship Positions

Thomson Majesty

Last reported at 2015-Sep-03 04:33 UTC. Time now 2015-Sep-03 10:49 UTC.
Position N 41°19' E 019°18'.

Length 207 m; draft 6.2 m.

Type: Ship. MMSI: 248124000.

Date/timePositionNaut miles runAvg speedWind from/ knotsBaromVisibWave heightAir tempDewpointWater temp
2015-Sep-03 04:33N 41°19' E 019°18'1513.2
2015-Sep-03 03:26N 41°30' E 019°05'1112.4
2015-Sep-03 02:33N 41°39' E 018°57'1212.3
2015-Sep-03 01:32N 41°50' E 018°48'1212.2
2015-Sep-03 00:33N 41°60' E 018°39'1212.3
2015-Sep-02 23:33N 42°10' E 018°29'1212.4
2015-Sep-02 22:33N 42°20' E 018°20'1212.3
2015-Sep-02 21:33N 42°30' E 018°10'11 0.9
2015-Sep-02 09:14N 42°39' E 018°02'913.3
2015-Sep-02 08:33N 42°39' E 017°49'1414.2
2015-Sep-02 07:33N 42°41' E 017°30'  
2015-Aug-29 14:20N 42°08' E 016°47'1316.8
2015-Aug-29 13:33N 41°59' E 016°59'2913.5
2015-Aug-29 11:24N 41°38' E 017°27'  
2015-Aug-25 18:07N 37°21' E 023°48'611.6
2015-Aug-25 17:33N 37°28' E 023°46'1211.9
2015-Aug-25 16:33N 37°39' E 023°43'1212.1
2015-Aug-25 15:33N 37°50' E 023°36'6 6.0
2015-Aug-25 14:32N 37°56' E 023°38'0 0.0
2015-Aug-25 13:33N 37°56' E 023°38'0 0.0
2015-Aug-25 12:33N 37°56' E 023°38'0 0.0
2015-Aug-25 11:32N 37°56' E 023°38'0 0.0
2015-Aug-25 10:33N 37°56' E 023°38'0 0.0
2015-Aug-25 09:33N 37°56' E 023°38'0 0.0
2015-Aug-25 08:32N 37°56' E 023°38'0 0.0
2015-Aug-25 07:33N 37°56' E 023°38'0 0.0
2015-Aug-25 06:32N 37°56' E 023°38'0 0.0
2015-Aug-25 05:32N 37°56' E 023°38'0 0.0
2015-Aug-25 04:32N 37°56' E 023°38'0 0.1
2015-Aug-25 03:33N 37°56' E 023°38'6 6.0
2015-Aug-25 02:33N 37°51' E 023°40'1413.8
2015-Aug-25 01:33N 37°39' E 023°49'1514.9
2015-Aug-25 00:33N 37°32' E 024°06'3015.1
2015-Aug-24 22:33N 37°32' E 024°44'1515.1
2015-Aug-24 21:33N 37°31' E 025°03'1515.1
2015-Aug-24 20:34N 37°32' E 025°22'1514.5
2015-Aug-24 19:33N 37°36' E 025°40'  

Dump ship's entire track history